This is the latest recevied weather packets stored in our database for station/object KF4ERV-4. If no packets are shown the sender has not sent any weather packets the latest 1 day(s).
| Time | Temp. | Humidity | Pressure | Rain* | Wind** | Luminosity | Snow |
|---|---|---|---|---|---|---|---|
| 1778028171 | 16.11° C | 90% | 1007 hPa | 1.02 mm | 0 m/s | - | - |
| 1778027997 | 16.11° C | 90% | 1007 hPa | 1.02 mm | 0 m/s | - | - |
| 1778027591 | 16.11° C | 90% | 1007 hPa | 1.27 mm | 0 m/s | - | - |
| 1778027394 | 16.11° C | 90% | 1007 hPa | 1.27 mm | 0 m/s | - | - |
| 1778027301 | 16.11° C | 90% | 1007 hPa | 1.27 mm | 0 m/s | - | - |
| 1778027096 | 16.11° C | 90% | 1007 hPa | 1.27 mm | 0 m/s | - | - |
| 1778027065 | 16.11° C | 91% | 1007.5 hPa | 1.78 mm | 0 m/s | - | - |
| 1778027011 | 16.11° C | 90% | 1007.1 hPa | 1.02 mm | 0 m/s | - | - |
| 1778026800 | 16.11° C | 90% | 1007.1 hPa | 1.02 mm | 0 m/s | - | - |
| 1778026721 | 16.11° C | 90% | 1007.8 hPa | 1.52 mm | 0 m/s | - | - |
| 1778026491 | 16.11° C | 90% | 1007.8 hPa | 1.52 mm | 0 m/s | - | - |
| 1778026431 | 16.11° C | 91% | 1007.5 hPa | 1.78 mm | 0 m/s | - | - |
| 1778026412 | 16.11° C | 91% | 1007 hPa | 1.78 mm | 0 m/s | - | - |
| 1778026193 | 16.11° C | 91% | 1007.5 hPa | 1.78 mm | 0 m/s | - | - |
| 1778026142 | 16.11° C | 91% | 1007.2 hPa | 1.78 mm | 0 m/s | - | - |
| 1778025897 | 16.11° C | 91% | 1007.2 hPa | 1.78 mm | 0 m/s | - | - |
| 1778025852 | 16.11° C | 91% | 1007 hPa | 1.78 mm | 0 m/s | - | - |
| 1778025599 | 16.11° C | 91% | 1007 hPa | 1.78 mm | 0 m/s | - | - |
| 1778025291 | 16.67° C | 91% | 1007.2 hPa | 1.52 mm | 0 m/s | - | - |
| 1778025271 | 16.67° C | 91% | 1007.6 hPa | 1.52 mm | 0 m/s | - | - |
| 1778024997 | 16.67° C | 91% | 1007.6 hPa | 1.52 mm | 0 m/s | - | - |
| 1778024691 | 17.22° C | 93% | 1008 hPa | 3.56 mm | 0 m/s | - | - |
| 1778024390 | 17.22° C | 94% | 1007.7 hPa | 3.81 mm | 0 m/s | - | - |
| 1778024161 | 17.22° C | 92% | 1007.2 hPa | 4.06 mm | 0 m/s | - | - |
| 1778024092 | 17.22° C | 93% | 1007.8 hPa | 4.06 mm | 0 m/s | - | - |
* Rain latest hour (hover to see other rain measurements)
** Current wind speed in m/s (hover to see current wind gust speed)